�������C�����ː����j�^�v���󋵏��
Date,Time,Cs137(Bq/L),Cs134(Bq/L),�S��(Bq/L)
2018/02/10,00:00,0.70,ND,ND
2018/02/10,00:10,0.69,ND,ND
2018/02/10,00:20,0.70,ND,ND
2018/02/10,00:30,0.72,ND,ND
2018/02/10,00:40,0.71,ND,ND
2018/02/10,00:50,0.72,ND,ND
2018/02/10,01:00,0.70,ND,ND
2018/02/10,01:10,0.69,ND,ND
2018/02/10,01:20,0.70,ND,ND
2018/02/10,01:30,0.71,ND,ND
2018/02/10,01:40,0.69,ND,ND
2018/02/10,01:50,0.70,ND,8.8
2018/02/10,02:00,0.72,ND,10
2018/02/10,02:10,0.73,ND,11
2018/02/10,02:20,0.72,ND,8.8
2018/02/10,02:30,0.72,ND,ND
2018/02/10,02:40,0.74,ND,ND
2018/02/10,02:50,0.74,ND,ND
2018/02/10,03:00,0.74,ND,ND
2018/02/10,03:10,0.73,ND,ND
2018/02/10,03:20,0.73,ND,ND
2018/02/10,03:30,0.72,ND,ND
2018/02/10,03:40,0.70,ND,ND
2018/02/10,03:50,0.69,ND,ND
2018/02/10,04:00,0.67,ND,ND
2018/02/10,04:10,0.68,ND,ND
2018/02/10,04:20,0.67,ND,ND
2018/02/10,04:30,0.65,ND,ND
2018/02/10,04:40,0.64,ND,ND
2018/02/10,04:50,0.64,ND,8.9
2018/02/10,05:00,0.64,ND,ND
2018/02/10,05:10,0.65,ND,ND
2018/02/10,05:20,0.67,ND,ND
2018/02/10,05:30,0.67,ND,ND
2018/02/10,05:40,0.67,ND,ND
2018/02/10,05:50,0.67,ND,ND
2018/02/10,06:00,0.69,ND,ND
2018/02/10,06:10,0.69,ND,ND
2018/02/10,06:20,0.67,ND,ND
2018/02/10,06:30,0.67,ND,ND
2018/02/10,06:40,0.69,ND,ND
2018/02/10,06:50,0.69,ND,ND
2018/02/10,07:00,0.69,ND,ND
2018/02/10,07:10,0.67,ND,ND
2018/02/10,07:20,0.68,ND,ND
2018/02/10,07:30,0.69,ND,ND
2018/02/10,07:40,0.69,ND,ND
2018/02/10,07:50,0.70,ND,ND
2018/02/10,08:00,0.72,ND,ND
2018/02/10,08:10,0.73,ND,ND
2018/02/10,08:20,0.73,ND,ND
2018/02/10,08:30,0.72,ND,ND
2018/02/10,08:40,0.72,ND,ND
2018/02/10,08:50,0.72,ND,ND
2018/02/10,09:00,0.72,ND,ND
2018/02/10,09:10,0.72,ND,9.6
2018/02/10,09:20,0.73,ND,12
2018/02/10,09:30,0.74,ND,12
2018/02/10,09:40,0.75,ND,12
2018/02/10,09:50,0.75,ND,10
2018/02/10,10:00,0.76,ND,9.7
2018/02/10,10:10,0.77,ND,ND
2018/02/10,10:20,0.75,ND,ND
2018/02/10,10:30,0.76,0.027,ND
2018/02/10,10:40,0.79,ND,ND
2018/02/10,10:50,0.74,0.038,ND
2018/02/10,11:00,0.71,ND,ND
2018/02/10,11:10,0.70,ND,ND
2018/02/10,11:20,0.70,ND,ND
2018/02/10,11:30,0.69,ND,ND
2018/02/10,11:40,0.67,ND,ND
2018/02/10,11:50,0.66,ND,ND
2018/02/10,12:00,0.68,ND,ND
2018/02/10,12:10,0.67,ND,ND
2018/02/10,12:20,0.65,0.032,ND
2018/02/10,12:30,0.64,ND,ND
2018/02/10,12:40,0.63,ND,ND
2018/02/10,12:50,0.61,ND,ND
2018/02/10,13:00,0.60,ND,ND
2018/02/10,13:10,0.60,ND,ND
2018/02/10,13:20,0.60,ND,ND
2018/02/10,13:30,0.61,ND,ND
2018/02/10,13:40,0.63,ND,ND
2018/02/10,13:50,0.65,ND,ND
2018/02/10,14:00,0.66,ND,ND
2018/02/10,14:10,0.67,ND,9.5
2018/02/10,14:20,0.69,ND,10
2018/02/10,14:30,0.70,ND,8.9
2018/02/10,14:40,0.69,ND,8.9
2018/02/10,14:50,0.69,ND,10
2018/02/10,15:00,0.67,ND,ND
2018/02/10,15:10,0.65,ND,ND
2018/02/10,15:20,0.66,ND,ND
2018/02/10,15:30,0.65,ND,ND
2018/02/10,15:40,0.67,ND,ND
2018/02/10,15:50,0.66,ND,ND
2018/02/10,16:00,0.64,ND,ND
2018/02/10,16:10,0.64,ND,ND
2018/02/10,16:20,0.63,ND,ND
2018/02/10,16:30,0.62,ND,ND
2018/02/10,16:40,0.63,ND,ND
2018/02/10,16:50,0.63,ND,ND
2018/02/10,17:00,0.65,ND,ND
2018/02/10,17:10,0.65,0.026,ND
2018/02/10,17:20,0.63,ND,ND
2018/02/10,17:30,0.68,ND,ND
2018/02/10,17:40,0.62,ND,ND
2018/02/10,17:50,0.61,ND,ND
2018/02/10,18:00,0.62,ND,ND
2018/02/10,18:10,0.62,ND,ND
2018/02/10,18:20,0.63,ND,ND
2018/02/10,18:30,0.64,ND,ND
2018/02/10,18:40,0.64,ND,ND
2018/02/10,18:50,0.65,ND,ND
2018/02/10,19:00,0.65,ND,ND
2018/02/10,19:10,0.65,ND,ND
2018/02/10,19:20,0.64,0.034,ND
2018/02/10,19:30,0.66,ND,ND
2018/02/10,19:40,0.60,ND,ND
2018/02/10,19:50,0.60,ND,ND
2018/02/10,20:00,0.60,ND,ND
2018/02/10,20:10,0.59,ND,ND
2018/02/10,20:20,0.61,ND,ND
2018/02/10,20:30,0.62,ND,ND
2018/02/10,20:40,0.65,ND,ND
2018/02/10,20:50,0.71,ND,ND
2018/02/10,21:00,0.72,ND,9.5
2018/02/10,21:10,0.69,ND,11
2018/02/10,21:20,0.68,ND,11
2018/02/10,21:30,0.65,ND,12
2018/02/10,21:40,0.64,ND,12
2018/02/10,21:50,0.63,ND,12
2018/02/10,22:00,0.60,ND,13
2018/02/10,22:10,0.57,0.029,11
2018/02/10,22:20,0.54,0.033,11
2018/02/10,22:30,0.56,0.027,10
2018/02/10,22:40,0.60,ND,9.7
2018/02/10,22:50,0.57,0.026,ND
2018/02/10,23:00,0.62,ND,ND
2018/02/10,23:10,0.60,ND,ND
2018/02/10,23:20,0.64,ND,ND
2018/02/10,23:30,0.65,ND,ND
2018/02/10,23:40,0.67,ND,ND
2018/02/10,23:50,0.65,ND,ND
